This is the latest recevied weather packets stored in our database for station/object SQ7ACP-3. If no packets are shown the sender has not sent any weather packets the latest 10 day(s).
| Time | Temp. | Humidity | Pressure | Rain* | Wind** | Luminosity | Snow |
|---|---|---|---|---|---|---|---|
| 1777473047 | 7.78° C | 40% | 1027.3 hPa | 0 mm | - | - | - |
| 1777472447 | 7.22° C | 41% | 1027.4 hPa | 0 mm | - | - | - |
| 1777471834 | 7.22° C | 43% | 1027.5 hPa | 0 mm | - | - | - |
| 1777471222 | 7.22° C | 43% | 1027.4 hPa | 0 mm | - | - | - |
| 1777470621 | 7.22° C | 43% | 1027.3 hPa | 0 mm | - | - | - |
| 1777470022 | 7.78° C | 43% | 1027.2 hPa | 0 mm | - | - | - |
| 1777469408 | 7.78° C | 43% | 1027.3 hPa | 0 mm | - | - | - |
| 1777468796 | 7.22° C | 44% | 1027.3 hPa | 0 mm | - | - | - |
| 1777468183 | 7.22° C | 44% | 1027.4 hPa | 0 mm | - | - | - |
| 1777467571 | 6.67° C | 47% | 1027.5 hPa | 0 mm | - | - | - |
| 1777466971 | 6.67° C | 46% | 1027.5 hPa | 0 mm | - | - | - |
| 1777466358 | 7.22° C | 45% | 1027.6 hPa | 0 mm | - | - | - |
| 1777465746 | 7.22° C | 43% | 1027.5 hPa | 0 mm | - | - | - |
| 1777465134 | 6.67° C | 46% | 1027.6 hPa | 0 mm | - | - | - |
| 1777464533 | 6.67° C | 47% | 1027.6 hPa | 0 mm | - | - | - |
| 1777463921 | 6.11° C | 47% | 1027.6 hPa | 0 mm | - | - | - |
| 1777463321 | 5.56° C | 48% | 1027.7 hPa | 0 mm | - | - | - |
| 1777462723 | 5.56° C | 48% | 1027.7 hPa | 0 mm | - | - | - |
| 1777462108 | 5.56° C | 47% | 1027.6 hPa | 0 mm | - | - | - |
| 1777461500 | 5.56° C | 49% | 1027.6 hPa | 0 mm | - | - | - |
| 1777460884 | 5.56° C | 48% | 1027.6 hPa | 0 mm | - | - | - |
| 1777460272 | 5.56° C | 45% | 1027.6 hPa | 0 mm | - | - | - |
| 1777459671 | 5.56° C | 46% | 1027.5 hPa | 0 mm | - | - | - |
| 1777459071 | 5.56° C | 46% | 1027.5 hPa | 0 mm | - | - | - |
| 1777458458 | 5.56° C | 48% | 1027.4 hPa | 0 mm | - | - | - |
* Rain latest hour (hover to see other rain measurements)
** Current wind speed in m/s (hover to see current wind gust speed)